When you browse on this site, cookies collect data to enhance your experience and personalize the content and advertising you see.
Visit our Privacy Policy to learn more. By continuing to use the site, you agree to this use of cookies and data.

Hourly Weather Batina

Today, 4 August, Tuesday

Time Temperature Precipitation Wind Pressure Humidity
00:00 +25°C° 0 mm 2 mps 669 mmHg 48%
01:00 +25°C° 0 mm 2 mps 669 mmHg 50%
02:00 +25°C° 0 mm 2 mps 669 mmHg 52%
03:00 +24°C° 0 mm 2 mps 669 mmHg 54%
04:00 +24°C° 0 mm 2 mps 669 mmHg 60%
05:00 +23°C° 0 mm 2 mps 669 mmHg 66%
06:00 +23°C° 0 mm 2 mps 669 mmHg 72%
07:00 +24°C° 0 mm 3 mps 670 mmHg 65%
08:00 +26°C° 0 mm 3 mps 670 mmHg 58%
09:00 +27°C° 0 mm 3 mps 671 mmHg 50%
10:00 +29°C° 0 mm 3 mps 671 mmHg 45%
11:00 +30°C° 0 mm 4 mps 671 mmHg 40%
12:00 +33°C° 0 mm 5 mps 671 mmHg 35%
13:00 +32°C° 0.1 mm 5 mps 671 mmHg 36%
14:00 +32°C° 0.1 mm 5 mps 670 mmHg 37%
15:00 +32°C° 0.1 mm 5 mps 670 mmHg 38%
16:00 +30°C° 0.1 mm 5 mps 670 mmHg 42%
17:00 +29°C° 0.1 mm 5 mps 670 mmHg 46%
18:00 +28°C° 0.1 mm 5 mps 670 mmHg 49%
19:00 +26°C° 0 mm 5 mps 670 mmHg 55%
20:00 +23°C° 0 mm 5 mps 670 mmHg 60%
21:00 +22°C° 0 mm 4 mps 670 mmHg 66%
22:00 +21°C° 0 mm 4 mps 670 mmHg 69%
23:00 +20°C° 0 mm 4 mps 670 mmHg 71%

Tomorrow, 5 August, Wednesday

Time Temperature Precipitation Wind Pressure Humidity
00:00 +20°C° 0 mm 4 mps 670 mmHg 74%
01:00 +19°C° 0 mm 3 mps 670 mmHg 75%
02:00 +19°C° 0 mm 2 mps 670 mmHg 75%
03:00 +20°C° 0 mm 1 mps 669 mmHg 75%
04:00 +20°C° 0 mm 1 mps 670 mmHg 73%
05:00 +21°C° 0 mm 1 mps 670 mmHg 70%
06:00 +19°C° 0 mm 0 mps 670 mmHg 67%
07:00 +23°C° 0 mm 1 mps 670 mmHg 61%
08:00 +25°C° 0 mm 1 mps 671 mmHg 54%
09:00 +26°C° 0 mm 2 mps 672 mmHg 48%
10:00 +28°C° 0 mm 2 mps 672 mmHg 43%
11:00 +29°C° 0 mm 3 mps 672 mmHg 38%
12:00 +31°C° 0 mm 3 mps 672 mmHg 34%
13:00 +32°C° 0 mm 4 mps 672 mmHg 32%
14:00 +33°C° 0 mm 4 mps 671 mmHg 29%
15:00 +33°C° 0 mm 4 mps 671 mmHg 27%
16:00 +32°C° 0 mm 4 mps 671 mmHg 28%
17:00 +32°C° 0 mm 4 mps 671 mmHg 28%
18:00 +30°C° 0 mm 4 mps 671 mmHg 28%
19:00 +28°C° 0 mm 4 mps 671 mmHg 31%
20:00 +26°C° 0 mm 3 mps 671 mmHg 34%
21:00 +24°C° 0 mm 3 mps 671 mmHg 36%
22:00 +23°C° 0 mm 2 mps 670 mmHg 38%
23:00 +23°C° 0 mm 2 mps 670 mmHg 39%

Day after tomorrow, 6 August, Thursday

Time Temperature Precipitation Wind Pressure Humidity
00:00 +21°C° 0 mm 2 mps 670 mmHg 41%
01:00 +22°C° 0 mm 1 mps 670 mmHg 44%
02:00 +21°C° 0 mm 1 mps 670 mmHg 47%
03:00 +21°C° 0 mm 1 mps 670 mmHg 49%
04:00 +21°C° 0 mm 1 mps 670 mmHg 48%
05:00 +19°C° 0 mm 0 mps 671 mmHg 47%
06:00 +20°C° 0 mm 0 mps 671 mmHg 46%
07:00 +24°C° 0 mm 1 mps 672 mmHg 43%
08:00 +25°C° 0 mm 2 mps 672 mmHg 39%
09:00 +27°C° 0 mm 2 mps 673 mmHg 36%
10:00 +29°C° 0 mm 3 mps 673 mmHg 32%
11:00 +30°C° 0 mm 3 mps 673 mmHg 28%
12:00 +32°C° 0 mm 4 mps 673 mmHg 25%
13:00 +33°C° 0 mm 4 mps 673 mmHg 23%
14:00 +33°C° 0 mm 5 mps 673 mmHg 21%
15:00 +34°C° 0 mm 5 mps 673 mmHg 20%
16:00 +33°C° 0 mm 5 mps 673 mmHg 21%
17:00 +32°C° 0 mm 5 mps 673 mmHg 22%
18:00 +30°C° 0 mm 5 mps 672 mmHg 23%
19:00 +28°C° 0 mm 4 mps 672 mmHg 27%
20:00 +26°C° 0 mm 3 mps 672 mmHg 32%
21:00 +25°C° 0 mm 2 mps 672 mmHg 36%
22:00 +24°C° 0 mm 2 mps 672 mmHg 38%
23:00 +23°C° 0 mm 2 mps 672 mmHg 40%

7 August, Friday

Time Temperature Precipitation Wind Pressure Humidity
00:00 +21°C° 0 mm 2 mps 672 mmHg 42%
01:00 +22°C° 0 mm 1 mps 672 mmHg 45%
02:00 +21°C° 0 mm 1 mps 672 mmHg 47%
03:00 +20°C° 0 mm 1 mps 672 mmHg 50%
04:00 +21°C° 0 mm 1 mps 672 mmHg 47%
05:00 +20°C° 0 mm 0 mps 673 mmHg 45%
06:00 +21°C° 0 mm 0 mps 673 mmHg 43%
07:00 +24°C° 0 mm 1 mps 674 mmHg 39%
08:00 +26°C° 0 mm 1 mps 674 mmHg 36%
09:00 +27°C° 0 mm 2 mps 675 mmHg 32%
10:00 +29°C° 0 mm 3 mps 675 mmHg 28%
11:00 +30°C° 0 mm 4 mps 675 mmHg 24%
12:00 +32°C° 0 mm 4 mps 675 mmHg 20%
13:00 +33°C° 0 mm 5 mps 675 mmHg 17%
14:00 +33°C° 0 mm 5 mps 675 mmHg 15%
15:00 +34°C° 0 mm 6 mps 674 mmHg 12%
16:00 +33°C° 0 mm 5 mps 674 mmHg 15%
17:00 +32°C° 0 mm 5 mps 674 mmHg 17%
18:00 +30°C° 0 mm 5 mps 674 mmHg 20%
19:00 +28°C° 0 mm 4 mps 674 mmHg 30%
20:00 +26°C° 0 mm 4 mps 674 mmHg 40%
21:00 +24°C° 0 mm 3 mps 674 mmHg 50%
22:00 +22°C° 0 mm 3 mps 673 mmHg 54%
23:00 +23°C° 0 mm 2 mps 673 mmHg 57%

8 August, Saturday

Time Temperature Precipitation Wind Pressure Humidity
00:00 +21°C° 0 mm 2 mps 673 mmHg 60%
01:00 +20°C° 0 mm 2 mps 673 mmHg 62%
02:00 +21°C° 0 mm 1 mps 672 mmHg 64%
03:00 +20°C° 0 mm 1 mps 672 mmHg 66%
04:00 +21°C° 0 mm 1 mps 673 mmHg 62%
05:00 +22°C° 0 mm 1 mps 673 mmHg 58%
06:00 +21°C° 0 mm 0 mps 674 mmHg 54%
07:00 +24°C° 0 mm 1 mps 674 mmHg 45%
08:00 +26°C° 0 mm 1 mps 675 mmHg 37%
09:00 +28°C° 0 mm 1 mps 675 mmHg 28%
10:00 +29°C° 0 mm 2 mps 675 mmHg 24%
11:00 +31°C° 0 mm 3 mps 675 mmHg 20%
12:00 +33°C° 0 mm 4 mps 675 mmHg 17%
13:00 +33°C° 0 mm 4 mps 675 mmHg 16%
14:00 +34°C° 0 mm 5 mps 674 mmHg 15%
15:00 +34°C° 0 mm 6 mps 674 mmHg 15%
16:00 +33°C° 0 mm 6 mps 674 mmHg 17%
17:00 +32°C° 0 mm 6 mps 673 mmHg 19%
18:00 +30°C° 0 mm 6 mps 673 mmHg 22%
19:00 +29°C° 0 mm 5 mps 673 mmHg 29%
20:00 +27°C° 0 mm 3 mps 673 mmHg 36%
21:00 +25°C° 0 mm 2 mps 673 mmHg 44%
22:00 +24°C° 0 mm 2 mps 672 mmHg 46%
23:00 +23°C° 0 mm 2 mps 672 mmHg 48%

9 August, Sunday

Time Temperature Precipitation Wind Pressure Humidity
00:00 +23°C° 0 mm 1 mps 672 mmHg 51%
01:00 +22°C° 0 mm 1 mps 671 mmHg 51%
02:00 +21°C° 0 mm 1 mps 671 mmHg 52%
03:00 +19°C° 0 mm 0 mps 670 mmHg 52%
04:00 +20°C° 0 mm 0 mps 671 mmHg 48%
05:00 +21°C° 0 mm 0 mps 672 mmHg 43%
06:00 +22°C° 0 mm 0 mps 672 mmHg 39%
07:00 +24°C° 0 mm 0 mps 673 mmHg 32%
08:00 +28°C° 0 mm 1 mps 673 mmHg 25%
09:00 +30°C° 0 mm 2 mps 674 mmHg 19%
10:00 +31°C° 0 mm 2 mps 673 mmHg 18%
11:00 +33°C° 0 mm 3 mps 673 mmHg 16%
12:00 +34°C° 0 mm 4 mps 673 mmHg 15%
13:00 +35°C° 0 mm 4 mps 673 mmHg 15%
14:00 +35°C° 0 mm 5 mps 673 mmHg 15%
15:00 +36°C° 0 mm 5 mps 672 mmHg 15%
16:00 +35°C° 0 mm 5 mps 672 mmHg 16%
17:00 +34°C° 0 mm 5 mps 672 mmHg 17%
18:00 +33°C° 0 mm 4 mps 671 mmHg 19%
19:00 +30°C° 0 mm 4 mps 671 mmHg 23%
20:00 +28°C° 0 mm 3 mps 671 mmHg 27%
21:00 +27°C° 0 mm 2 mps 671 mmHg 31%
22:00 +26°C° 0 mm 2 mps 671 mmHg 34%
23:00 +25°C° 0 mm 1 mps 670 mmHg 36%
Show more